Regional Weather Roundup
Issued by NWS Raleigh/Durham, NC

Home | Current Version | Previous Version | Text Only | Print | Product List | Glossary On
Versions: 1 2 3 4 5 6 7 8 9 10 11 12 13 14 15 16 17 18 19 20 21 22 23 24 25 26 27
000
ASUS42 KRAH 202310
RWRRAH
NORTH CAROLINA WEATHER ROUNDUP
NATIONAL WEATHER SERVICE RALEIGH NC
700 PM EDT WED SEP 20 2017

NOTE: "FAIR" INDICATES FEW OR NO CLOUDS BELOW 12,000 FEET WITH NO
SIGNIFICANT WEATHER AND/OR OBSTRUCTIONS TO VISIBILITY.

NCZ001-053-055-056-065-067-210000-
WESTERN NORTH CAROLINA

CITY           SKY/WX    TMP DP  RH WIND       PRES   REMARKS
ASHEVILLE      CLEAR     80  61  52 VRB3      30.08R
JEFFERSON      CLEAR     73  57  56 NW5       30.12S
MORGANTON      CLEAR     80  71  72 CALM      30.04R
HICKORY        CLEAR     83  63  50 W3        30.00R
RUTHERFORDTON  CLEAR     85  64  49 CALM      30.01S
MOUNT AIRY     PTCLDY    83  65  53 CALM      30.02S
BOONE          CLEAR     73  55  52 W6        30.14R
$$

NCZ021-022-025-041-071-084-088-210000-
CENTRAL NORTH CAROLINA

CITY           SKY/WX    TMP DP  RH WIND       PRES   REMARKS
CHARLOTTE      PTCLDY    85  67  54 SW3       29.98S
GREENSBORO     PTCLDY    83  66  56 NW3       29.98R
WINSTON-SALEM  CLEAR     84  63  49 W3        30.00R
RALEIGH-DURHAM PTCLDY    84  65  52 NE6       29.95R
FORT BRAGG     CLOUDY    75  68  79 S6        29.95R
FAYETTEVILLE   TSTM      74  70  87 S6        29.95R
BURLINGTON     CLEAR     83  66  56 W3        29.97R
LAURINBURG     MOCLDY    81  63  54 N5        29.97R
$$

NCZ011-015-027-028-043-044-047-080-103-210000-
NORTHEASTERN NORTH CAROLINA

CITY           SKY/WX    TMP DP  RH WIND       PRES   REMARKS
ROCKY MT-WILSO CLEAR     81  73  76 S3        29.94S
GREENVILLE     CLEAR     81  73  78 CALM      29.96S
WASHINGTON     CLEAR     80  71  73 CALM      29.94S
ELIZABETH CITY CLEAR     77  67  71 W3        29.93R
MANTEO         CLEAR     78  67  69 CALM      29.94R
CAPE HATTERAS  PTCLDY    79  75  87 SW5       29.95R
$$

NCZ078-087-090-091-093-098-101-210000-
SOUTHEASTERN NORTH CAROLINA

CITY           SKY/WX    TMP DP  RH WIND       PRES   REMARKS
LUMBERTON      CLEAR     81  72  74 SW5       29.95R
GOLDSBORO      CLOUDY    75  73  93 CALM      29.93S
KINSTON        CLOUDY    75  72  88 SW3       29.96R
KENANSVILLE    MOCLDY    79  66  65 CALM      29.96R
NEW BERN       CLEAR     80  74  81 CALM      29.95R
CHERRY POINT   CLEAR     80  73  79 S8        29.95S
BEAUFORT       CLEAR     79  74  84 SW9       29.95S
JACKSONVILLE   CLEAR     81  74  79 S7        29.94R
WILMINGTON     CLEAR     84  68  58 SW6       29.95R
$$





USA.gov is the U.S. government's official web portal to all federal, state and local government web resources and services.